Flag for Spain Weather past 2 weeks in Barcelona, Barcelona, Spain

Now
54 °F

Passing clouds.


Feels Like: 53 °F
Forecast: 56 / 64 °F
Wind: 5 mph from Northwest

Location: Barcelona Airport

Current Time: Apr 18, 2015 at 7:36:01 AM

Latest Report: Apr 18, 2015 at 7:00 AM


Visibility: 5 mi

Pressure: 30.01 "Hg

Humidity: 88%

Dew point: 50 °F

Location of BarcelonaLocation

Historic Weather in Barcelona — Graph

°F

Barcelona temperature yesterday

Maximum temperature yesterday: 70 °F (at 12:00 PM)
Minimum temperature yesterday: 55 °F (at 4:00 AM)
Average temperature yesterday: 61 °F

Past Weeks' High & Low Weather Summary

 TemperatureHumidityPressure
High70 °F (Apr 17, 12:00 PM)94% (Apr 4, 12:30 AM)30.48 "Hg (Apr 4, 12:30 AM)
Low43 °F (Apr 8, 7:30 AM)23% (Apr 8, 2:30 PM)29.83 "Hg (Apr 5, 7:00 AM)
Average57 °F70%30.20 "Hg
* Reported Apr 3 6:00 AM — Apr 18 6:30 AM, Barcelona, Weather by CustomWeather, © 2015

Note: Actual official high and low records may vary slightly from our data, if they occured in-between our weather recording intervals... More about our weather records

Advertising

Barcelona weather history for previous 24 hours

 ConditionsComfort  
Time TempWeatherWind HumidityBarometerVisibility
6:30 AM
Sat, Apr 18
54 °FPassing clouds.7 mph88%30.01 "Hg6 mi
6:00 AM55 °FPassing clouds.6 mph82%30.01 "Hg6 mi
5:30 AM55 °FPassing clouds.7 mph82%30.01 "Hg6 mi
5:00 AM55 °FPassing clouds.7 mph82%30.01 "Hg5 mi
4:30 AM55 °FClear.7 mph82%30.01 "Hg5 mi
4:00 AM55 °FClear.7 mph88%30.01 "Hg5 mi
3:30 AM55 °FClear.8 mph88%30.04 "Hg5 mi
3:00 AM57 °FClear.6 mph82%30.04 "Hg5 mi
2:30 AM57 °FClear.5 mph82%30.07 "Hg6 mi
2:00 AM57 °FClear.5 mph82%30.07 "Hg5 mi
1:30 AM57 °FPassing clouds.6 mph88%30.07 "Hg4 mi
1:00 AM57 °FPassing clouds.5 mph88%30.07 "Hg4 mi
12:30 AM59 °FFog.3 mph82%30.07 "Hg3 mi
12:00 AM59 °FPassing clouds.2 mph88%30.07 "Hg4 mi
11:30 PM
Fri, Apr 17
61 °FPassing clouds.5 mph83%30.07 "Hg6 mi
11:00 PM61 °FPassing clouds.7 mph88%30.09 "Hg4 mi
10:30 PM61 °FPassing clouds.3 mph88%30.07 "Hg4 mi
10:00 PM61 °FPassing clouds.2 mph88%30.07 "Hg4 mi
9:30 PM61 °FPassing clouds.2 mph88%30.07 "Hg5 mi
9:00 PM61 °FClear.3 mph88%30.04 "Hg6 mi
8:30 PM61 °FPassing clouds.2 mph88%30.04 "Hg6 mi
8:00 PM61 °FPassing clouds.3 mph88%30.04 "Hg6 mi
7:30 PM63 °FPassing clouds.2 mph83%30.04 "Hg6 mi
7:00 PM64 °FScattered clouds.6 mph78%30.04 "Hg6 mi
6:30 PM64 °FScattered clouds.5 mph73%30.04 "Hg6 mi
6:00 PM66 °FScattered clouds.5 mph68%30.04 "Hg6 mi
5:30 PM64 °FScattered clouds.6 mph78%30.04 "Hg6 mi
5:00 PM64 °FScattered clouds.7 mph78%30.04 "HgN/A
4:30 PM64 °FScattered clouds.7 mph78%30.04 "HgN/A
4:00 PM64 °FScattered clouds.8 mph78%30.04 "HgN/A
3:30 PM64 °FScattered clouds.9 mph78%30.04 "HgN/A
3:00 PM64 °FScattered clouds.10 mph78%30.04 "HgN/A
2:30 PM64 °FPassing clouds.9 mph73%30.04 "HgN/A
2:00 PM66 °FPassing clouds.9 mph68%30.04 "HgN/A
1:30 PM66 °FPassing clouds.8 mph68%30.04 "HgN/A
1:00 PM64 °FPassing clouds.9 mph73%30.04 "HgN/A
12:30 PM70 °FPassing clouds.8 mph57%30.04 "HgN/A
12:00 PM70 °FPassing clouds.10 mph53%30.04 "HgN/A
11:30 AM68 °FPassing clouds.8 mph56%30.04 "HgN/A
11:00 AM66 °FPassing clouds.9 mph60%30.04 "HgN/A
10:30 AM64 °FPassing clouds.9 mph64%30.04 "HgN/A
10:00 AM63 °FPassing clouds.7 mph68%30.04 "HgN/A
9:30 AM59 °FPassing clouds.10 mph77%30.04 "HgN/A
9:00 AM59 °FPassing clouds.10 mph72%30.04 "HgN/A
8:30 AM55 °FPassing clouds.9 mph82%30.04 "HgN/A
8:00 AM55 °FPassing clouds.8 mph82%30.01 "HgN/A
7:30 AM55 °FPassing clouds.10 mph82%29.98 "HgN/A
7:00 AM55 °FPassing clouds.8 mph82%29.98 "HgN/A
Weather by CustomWeather, © 2015

See weather overviewHow to use our weather pages